Tracking 27422 objects as of 31-May-2023
HD Live streaming from Space Station
objects crossing your sky now

STARLINK-3895

Track STARLINK-3895 now!
10-day predictions
STARLINK-3895 is classified as:


NORAD ID: 52583
Int'l Code: 2022-051AZ
Perigee: 546.2 km
Apogee: 547.6 km
Inclination: 53.2 °
Period: 95.4 minutes
Semi major axis: 6917 km
RCS: Unknown
Launch date: May 13, 2022
Source: United States (US)
Launch site: AIR FORCE WESTERN TEST RANGE (AFWTR)
Your satellite tracking list
Your tracking list is empty




NASA's NSSDC Master Catalog

Two Line Element Set (TLE):
1 52583U 22051AZ  23150.79999175  .00000226  00000-0  32282-4 0  9991
2 52583  53.2175 350.6473 0000996  94.6445 265.4661 15.08842391 58590
Source of the keplerian elements: AFSPC